Regional Weather Roundup
Issued by NWS

Home | Current Version | Previous Version | Text Only | Print | Product List | Glossary Off
Versions: 1 2 3 4 5 6 7 8 9 10 11 12 13 14 15 16 17 18 19 20 21 22 23 24 25 26 27 28 29 30 31 32 33 34 35 36 37 38 39 40 41 42 43 44 45 46 47 48 49 50

000
ASUS43 KOAX 292310
RWRNE

WEATHER ROUNDUP FOR NEBRASKA
NATIONAL WEATHER SERVICE OMAHA NE
600 PM CDT SUN MAY 29 2016

NOTES: SATELLITE DATA IS BEING USED TO AUGMENT CLOUD COVER ABOVE
       12000 FEET.
       "FAIR" INDICATES FEW OR NO CLOUDS BELOW 12,000 FEET WITH NO
       SIGNIFICANT WEATHER AND/OR OBSTRUCTIONS TO VISIBILITY.

  * THESE STATIONS DO NOT REPORT WEATHER SUCH AS RAIN...SNOW OR FOG.

NEZ001>004-019>022-054>056-300000-
NEBRASKA PANHANDLE

CITY           SKY/WX    TMP DP  RH WIND       PRES   REMARKS
SCOTTSBLUFF    CLOUDY    76  45  33 SE5       30.02F
ALLIANCE       CLOUDY    78  43  28 SW10      30.01F
CHADRON        SUNNY     82  45  27 N8        29.98F
KIMBALL        PTSUNNY   71  46  40 NE9       30.06F
SIDNEY         SUNNY     78  40  25 CALM      30.03F
$$

NEZ057>060-069>072-079>082-300000-
SOUTHWEST NEBRASKA

CITY           SKY/WX    TMP DP  RH WIND       PRES   REMARKS
NORTH PLATTE   MOSUNNY   82  56  40 E10       29.97F
IMPERIAL       MOSUNNY   81  53  37 E8        29.97F
LEXINGTON      CLOUDY    79  57  45 SE14      29.99S
MCCOOK         CLOUDY    72  54  53 S18G30    29.98S
OGALLALA       SUNNY     80  47  31 CALM      29.98F
$$

NEZ005>010-023>029-035>040-094-300000-
NORTH CENTRAL NEBRASKA

CITY           SKY/WX    TMP DP  RH WIND       PRES   REMARKS
VALENTINE      SUNNY     78  52  40 E10       29.98F
AINSWORTH      MOSUNNY   78  54  42 E12       30.00F
BROKEN BOW     SUNNY     80  57  45 SE10      29.99F
O`NEILL        SUNNY     79  56  45 E6        30.01F
ORD            SUNNY     81  55  40 E8        29.97F
THEDFORD       MOSUNNY   83  51  32 SE8       29.99F
$$

NEZ041-046>049-061>064-073>077-083>087-300000-
SOUTH CENTRAL NEBRASKA

CITY           SKY/WX    TMP DP  RH WIND       PRES   REMARKS
GRAND ISLAND   CLOUDY    82  58  43 E9        29.99F
AURORA         CLOUDY    82  56  41 E9        29.98F
HASTINGS       CLOUDY    81  55  40 SW6       29.99S
HEBRON         CLOUDY    82  58  44 S7        30.00S
HOLDREGE       CLOUDY    74  57  55 S7        30.01R
KEARNEY *      CLOUDY    79  55  44 S10G20    30.00S
YORK           CLOUDY    79  61  53 SE8       29.99F
$$

NEZ011>018-030>034-042>045-300000-
NORTHEAST NEBRASKA

CITY           SKY/WX    TMP DP  RH WIND       PRES   REMARKS
NORFOLK        SUNNY     80  55  42 E6        30.00F
ALBION         SUNNY     82  49  31 CALM      29.99F
BLAIR          SUNNY     84  55  36 CALM      30.00F
FREMONT        SUNNY     83  55  38 NW3       30.00F
TEKAMAH          N/A    N/A N/A N/A MISG      29.98F
WAYNE          SUNNY     81  55  41 CALM      30.00F
$$

NEZ050>053-065>068-078-088>093-300000-
SOUTHEAST NEBRASKA

CITY           SKY/WX    TMP DP  RH WIND       PRES   REMARKS
LINCOLN        SUNNY     85  57  38 CALM      29.99F
OMAHA EPPLEY   MOSUNNY   87  56  34 N5        29.98F
BEATRICE       PTSUNNY   82  58  44 S6        29.99F
FALLS CITY     SUNNY     86  59  39 SW5       29.99F
NEBRASKA CITY  SUNNY     84  56  37 W8        30.00F
PLATTSMOUTH    MOSUNNY   86  55  34 SW7       29.99F
$$

NEZ044-045-051>053-067-300000-
OMAHA AREA

CITY           SKY/WX    TMP DP  RH WIND       PRES   REMARKS
OMAHA EPPLEY   MOSUNNY   87  56  34 N5        29.98F
BLAIR          SUNNY     84  55  36 CALM      30.00F
FREMONT        SUNNY     83  55  38 NW3       30.00F
MILLARD        SUNNY     85  56  37 SW5       29.98F
OFFUTT AFB     SUNNY     85  58  39 VRB1      29.98F
PLATTSMOUTH    MOSUNNY   86  55  34 SW7       29.99F
WAHOO          FAIR      85  51  30 CALM      29.99F
$$




USA.gov is the U.S. government's official web portal to all federal, state and local government web resources and services.